{"data":{"norad_id":38734,"intl_designator":"2012-041B","name":"GONETS-M 3","alt_names":[],"object_type":"PAYLOAD","status":"ACTIVE","operator":null,"country":"CIS","launch_date":"2012-07-28","launch_site_code":"PLMSC","launch_vehicle":null,"mission":null,"orbit_class":"UNKNOWN","rcs_meters":1.66,"size_class":null,"mass_kg":null,"dimensions":null,"purposes":[],"wikipedia_slug":null,"has_3d_model":false,"image_url":null,"decayed_at":null,"tle_current":{"epoch":"2026-09-20T05:22:37.882848Z","epoch_age_seconds":53063,"freshness":"FRESH","line1":"1 38734U 12041B   26263.22404957  .00000095  00000+0  59591-3 0  9990","line2":"2 38734  82.4804   5.2750 0016440 210.2396 149.7737 12.44905744642493","mean_motion":12.44905744,"eccentricity":0.001644,"inclination_deg":82.4804,"raan_deg":5.275,"arg_perigee_deg":210.2396,"mean_anomaly_deg":149.7737,"bstar":0.00059591,"rev_number":64249,"period_min":115.67140781061,"perigee_km":1472.9470452194,"apogee_km":1498.8039182594,"semimajor_km":7864.0124817394,"source":"CELESTRAK","updated_at":"2026-09-20T09:00:13.862119Z"}}}